,,,PA_Meas_PMT16A,,PR_Meas_QMR101_102,,RH_Meas_QMH101,,SR_Meas_QMS101,,TA_Meas_QMH101,,GenWind,,GenWind,
date,time,status,PA,status,PR,status,RH,status,SR,status,TA,status,DirAvg,status,SpdAvg,
2010-07-07, 00:00:04,VALID,1009.8,VALID,0,VALID,102.467,VALID,0,VALID,25.3702,VALID,4,VALID,0,
2010-07-07, 00:01:04,VALID,1009.78,VALID,0,VALID,102.452,VALID,0,VALID,25.3702,VALID,4,VALID,0,
2010-07-07, 00:02:04,VALID,1009.78,VALID,0,VALID,102.46,VALID,0,VALID,25.3293,VALID,4,VALID,0,
2010-07-07, 00:03:04,VALID,1009.76,VALID,0,VALID,102.467,VALID,0.105969,VALID,25.3293,VALID,4,VALID,0,
2010-07-07, 00:04:04,VALID,1009.76,VALID,0,VALID,102.452,VALID,0,VALID,25.3098,VALID,4,VALID,0,
2010-07-07, 00:05:04,VALID,1009.76,VALID,0,VALID,102.467,VALID,0,VALID,25.3312,VALID,4,VALID,0,
2010-07-07, 00:06:04,VALID,1009.74,VALID,0,VALID,102.444,VALID,0,VALID,25.2903,VALID,4,VALID,0,
2010-07-07, 00:07:04,VALID,1009.77,VALID,0,VALID,102.452,VALID,0,VALID,25.3312,VALID,4,VALID,0,
2010-07-07, 00:08:04,VALID,1009.75,VALID,0,VALID,102.49,VALID,0,VALID,25.3098,VALID,4,VALID,0,
2010-07-07, 00:09:04,VALID,1009.71,VALID,0,VALID,102.482,VALID,0,VALID,25.3098,VALID,4,VALID,0,
2010-07-07, 00:10:04,VALID,1009.7,VALID,0,VALID,102.452,VALID,0,VALID,25.3312,VALID,4,VALID,0,
2010-07-07, 00:11:04,VALID,1009.69,VALID,0,VALID,102.467,VALID,0,VALID,25.3312,VALID,4,VALID,0,
2010-07-07, 00:12:04,VALID,1009.69,VALID,0,VALID,102.482,VALID,0,VALID,25.3098,VALID,4,VALID,0,
2010-07-07, 00:13:04,VALID,1009.69,VALID,0,VALID,102.475,VALID,0.105969,VALID,25.2903,VALID,4,VALID,0,
2010-07-07, 00:14:04,VALID,1009.66,VALID,0,VALID,102.49,VALID,0,VALID,25.3117,VALID,4,VALID,0,
2010-07-07, 00:15:04,VALID,1009.66,VALID,0,VALID,102.482,VALID,0,VALID,25.2903,VALID,4,VALID,0,
2010-07-07, 00:16:04,VALID,1009.63,VALID,0,VALID,102.505,VALID,0,VALID,25.2513,VALID,4,VALID,0,
2010-07-07, 00:17:04,VALID,1009.63,VALID,0,VALID,102.513,VALID,0,VALID,25.2318,VALID,4,VALID,0,
2010-07-07, 00:18:04,VALID,1009.62,VALID,0,VALID,102.513,VALID,0.105969,VALID,25.1928,VALID,4,VALID,0,
2010-07-07, 00:19:04,VALID,1009.64,VALID,0,VALID,102.498,VALID,0,VALID,25.2337,VALID,4,VALID,0,
2010-07-07, 00:20:04,VALID,1009.64,VALID,0,VALID,102.498,VALID,0,VALID,25.2123,VALID,4,VALID,0,
2010-07-07, 00:21:04,VALID,1009.6,VALID,0,VALID,102.498,VALID,0,VALID,25.2337,VALID,4,VALID,0,
2010-07-07, 00:22:04,VALID,1009.63,VALID,0,VALID,102.49,VALID,0,VALID,25.2337,VALID,4,VALID,0,
2010-07-07, 00:23:04,VALID,1009.64,VALID,0,VALID,102.505,VALID,0,VALID,25.1928,VALID,4,VALID,0,
2010-07-07, 00:24:04,VALID,1009.62,VALID,0,VALID,102.49,VALID,0,VALID,25.2123,VALID,4,VALID,0,
2010-07-07, 00:25:04,VALID,1009.6,VALID,0,VALID,102.482,VALID,0.105969,VALID,25.2123,VALID,4,VALID,0,
2010-07-07, 00:26:04,VALID,1009.59,VALID,0,VALID,102.482,VALID,0,VALID,25.2318,VALID,4,VALID,0,
2010-07-07, 00:27:04,VALID,1009.6,VALID,0,VALID,102.49,VALID,0,VALID,25.2318,VALID,4,VALID,0,
2010-07-07, 00:28:04,VALID,1009.59,VALID,0,VALID,102.498,VALID,0,VALID,25.2532,VALID,4,VALID,0,
2010-07-07, 00:29:04,VALID,1009.58,VALID,0,VALID,102.475,VALID,0.105969,VALID,25.2513,VALID,4,VALID,0,
2010-07-07, 00:30:04,VALID,1009.56,VALID,0,VALID,102.49,VALID,0.105969,VALID,25.2727,VALID,4,VALID,0,
2010-07-07, 00:31:04,VALID,1009.55,VALID,0,VALID,102.482,VALID,0.105969,VALID,25.2903,VALID,4,VALID,0,
2010-07-07, 00:32:04,VALID,1009.55,VALID,0,VALID,102.505,VALID,0.105969,VALID,25.2708,VALID,4,VALID,0,
2010-07-07, 00:33:04,VALID,1009.54,VALID,0,VALID,102.498,VALID,0,VALID,25.2727,VALID,4,VALID,0,
2010-07-07, 00:34:04,VALID,1009.52,VALID,0,VALID,102.513,VALID,0,VALID,25.2513,VALID,4,VALID,0,
2010-07-07, 00:35:04,VALID,1009.5,VALID,0,VALID,102.505,VALID,0,VALID,25.2318,VALID,4,VALID,0,
2010-07-07, 00:36:04,VALID,1009.5,VALID,0,VALID,102.498,VALID,0,VALID,25.2337,VALID,4,VALID,0,
2010-07-07, 00:37:04,VALID,1009.48,VALID,0,VALID,102.505,VALID,0,VALID,25.2337,VALID,4,VALID,0,
2010-07-07, 00:38:04,VALID,1009.48,VALID,0,VALID,102.513,VALID,0.105969,VALID,25.2337,VALID,4,VALID,0,
2010-07-07, 00:39:04,VALID,1009.47,VALID,0,VALID,102.513,VALID,0.105969,VALID,25.2337,VALID,4,VALID,0,
2010-07-07, 00:40:04,VALID,1009.49,VALID,0,VALID,102.498,VALID,0,VALID,25.2123,VALID,4,VALID,0,
2010-07-07, 00:41:04,VALID,1009.46,VALID,0,VALID,102.498,VALID,0.105969,VALID,25.2123,VALID,4,VALID,0,
2010-07-07, 00:42:04,VALID,1009.46,VALID,0,VALID,102.505,VALID,0,VALID,25.2337,VALID,4,VALID,0,
2010-07-07, 00:43:04,VALID,1009.47,VALID,0,VALID,102.505,VALID,0,VALID,25.2123,VALID,4,VALID,0,
2010-07-07, 00:44:04,VALID,1009.43,VALID,0,VALID,102.49,VALID,0,VALID,25.1928,VALID,4,VALID,0,
2010-07-07, 00:45:04,VALID,1009.42,VALID,0,VALID,102.498,VALID,0,VALID,25.2142,VALID,4,VALID,0,
2010-07-07, 00:46:04,VALID,1009.44,VALID,0,VALID,102.498,VALID,0,VALID,25.2142,VALID,4,VALID,0,
2010-07-07, 00:47:04,VALID,1009.43,VALID,0,VALID,102.505,VALID,0.105969,VALID,25.1928,VALID,4,VALID,0,
2010-07-07, 00:48:04,VALID,1009.41,VALID,0,VALID,102.49,VALID,0.105969,VALID,25.1928,VALID,4,VALID,0,
2010-07-07, 00:49:04,VALID,1009.38,VALID,0,VALID,102.49,VALID,0,VALID,25.1928,VALID,4,VALID,0,
2010-07-07, 00:50:04,VALID,1009.38,VALID,0,VALID,102.498,VALID,0,VALID,25.1928,VALID,4,VALID,0,
2010-07-07, 00:51:04,VALID,1009.36,VALID,0,VALID,102.482,VALID,0.105969,VALID,25.1928,VALID,4,VALID,0,
2010-07-07, 00:52:04,VALID,1009.34,VALID,0,VALID,102.49,VALID,0,VALID,25.1928,VALID,4,VALID,0,
2010-07-07, 00:53:04,VALID,1009.31,VALID,0,VALID,102.467,VALID,0,VALID,25.1928,VALID,4,VALID,0,
2010-07-07, 00:54:04,VALID,1009.3,VALID,0,VALID,102.49,VALID,0.105969,VALID,25.2142,VALID,4,VALID,0,
2010-07-07, 00:55:04,VALID,1009.29,VALID,0,VALID,102.467,VALID,0.105969,VALID,25.1733,VALID,4,VALID,0,
2010-07-07, 00:56:04,VALID,1009.3,VALID,0,VALID,102.475,VALID,0.105969,VALID,25.1928,VALID,4,VALID,0,
2010-07-07, 00:57:04,VALID,1009.29,VALID,0,VALID,102.482,VALID,0.105969,VALID,25.1733,VALID,4,VALID,0,
2010-07-07, 00:58:04,VALID,1009.31,VALID,0,VALID,102.482,VALID,0,VALID,25.1752,VALID,4,VALID,0,
2010-07-07, 00:59:04,VALID,1009.3,VALID,0,VALID,102.475,VALID,0,VALID,25.1343,VALID,4,VALID,0,
2010-07-07, 01:00:04,VALID,1009.34,VALID,0,VALID,102.482,VALID,0.105969,VALID,25.1148,VALID,4,VALID,0,
2010-07-07, 01:01:04,VALID,1009.34,VALID,0,VALID,102.49,VALID,0.105969,VALID,25.0954,VALID,4,VALID,0,
2010-07-07, 01:02:04,VALID,1009.34,VALID,0,VALID,102.475,VALID,0,VALID,25.0759,VALID,4,VALID,0,
2010-07-07, 01:03:04,VALID,1009.33,VALID,0,VALID,102.482,VALID,0,VALID,25.0778,VALID,55,VALID,0,
2010-07-07, 01:04:04,VALID,1009.34,VALID,0,VALID,102.482,VALID,0,VALID,25.0973,VALID,91,VALID,0,
2010-07-07, 01:05:04,VALID,1009.36,VALID,0,VALID,102.505,VALID,0,VALID,25.0778,VALID,88,VALID,0,
2010-07-07, 01:06:04,VALID,1009.34,VALID,0,VALID,102.498,VALID,0,VALID,25.0759,VALID,88,VALID,0,
2010-07-07, 01:07:04,VALID,1009.35,VALID,0,VALID,102.482,VALID,0,VALID,25.0759,VALID,88,VALID,0,
2010-07-07, 01:08:04,VALID,1009.35,VALID,0,VALID,102.482,VALID,0,VALID,25.1167,VALID,88,VALID,0,
2010-07-07, 01:09:04,VALID,1009.32,VALID,0,VALID,102.452,VALID,0,VALID,25.1148,VALID,90,VALID,0,
2010-07-07, 01:10:04,VALID,1009.32,VALID,0,VALID,102.452,VALID,0,VALID,25.1362,VALID,143,VALID,0,
2010-07-07, 01:11:04,VALID,1009.33,VALID,0,VALID,102.444,VALID,0,VALID,25.1148,VALID,143,VALID,0.652734,
2010-07-07, 01:12:04,VALID,1009.33,VALID,0,VALID,102.429,VALID,0,VALID,25.1343,VALID,136,VALID,0.638281,
2010-07-07, 01:13:04,VALID,1009.31,VALID,0,VALID,102.376,VALID,0,VALID,25.1343,VALID,130,VALID,0.466797,
2010-07-07, 01:14:04,VALID,1009.3,VALID,0,VALID,102.353,VALID,0,VALID,25.1557,VALID,130,VALID,0.247266,
2010-07-07, 01:15:04,VALID,1009.27,VALID,0,VALID,102.33,VALID,0,VALID,25.1947,VALID,130,VALID,0.297656,
2010-07-07, 01:16:04,VALID,1009.28,VALID,0,VALID,102.345,VALID,0.105969,VALID,25.2123,VALID,118,VALID,0.537109,
2010-07-07, 01:17:04,VALID,1009.26,VALID,0,VALID,102.353,VALID,0,VALID,25.2513,VALID,126,VALID,0.800391,
2010-07-07, 01:18:04,VALID,1009.24,VALID,0,VALID,102.345,VALID,0.105969,VALID,25.2708,VALID,131,VALID,0.448438,
2010-07-07, 01:19:04,VALID,1009.22,VALID,0,VALID,102.345,VALID,0.105969,VALID,25.2922,VALID,131,VALID,0.323047,
2010-07-07, 01:20:04,VALID,1009.2,VALID,0,VALID,102.315,VALID,0,VALID,25.2708,VALID,131,VALID,0.104687,
2010-07-07, 01:21:04,VALID,1009.19,VALID,0,VALID,102.33,VALID,0,VALID,25.2708,VALID,131,VALID,0.317578,
2010-07-07, 01:22:04,VALID,1009.18,VALID,0,VALID,102.353,VALID,0,VALID,25.3312,VALID,120,VALID,0.654688,
2010-07-07, 01:23:04,VALID,1009.2,VALID,0,VALID,102.376,VALID,0,VALID,25.3312,VALID,104,VALID,0.685547,
2010-07-07, 01:24:04,VALID,1009.14,VALID,0,VALID,102.368,VALID,0.105969,VALID,25.3293,VALID,114,VALID,0.917578,
2010-07-07, 01:25:04,VALID,1009.16,VALID,0,VALID,102.368,VALID,0.105969,VALID,25.3293,VALID,133,VALID,0.972266,
2010-07-07, 01:26:04,VALID,1009.17,VALID,0,VALID,102.338,VALID,0,VALID,25.3293,VALID,126,VALID,0.835938,
2010-07-07, 01:27:04,VALID,1009.15,VALID,0,VALID,102.338,VALID,0.105969,VALID,25.3293,VALID,109,VALID,0.183984,
2010-07-07, 01:28:04,VALID,1009.13,VALID,0,VALID,102.292,VALID,0,VALID,25.3098,VALID,73,VALID,0.805469,
2010-07-07, 01:29:04,VALID,1009.14,VALID,0,VALID,102.254,VALID,0,VALID,25.2903,VALID,81,VALID,0.607813,
2010-07-07, 01:30:04,VALID,1009.14,VALID,0,VALID,102.216,VALID,0.105969,VALID,25.2708,VALID,73,VALID,0.680078,
2010-07-07, 01:31:04,VALID,1009.12,VALID,0,VALID,102.193,VALID,0,VALID,25.2513,VALID,103,VALID,0.458984,
2010-07-07, 01:32:04,VALID,1009.11,VALID,0,VALID,102.155,VALID,0.105969,VALID,25.2318,VALID,103,VALID,0.549219,
2010-07-07, 01:33:04,VALID,1009.12,VALID,0,VALID,102.147,VALID,0,VALID,25.2318,VALID,101,VALID,0.710938,
2010-07-07, 01:34:04,VALID,1009.1,VALID,0,VALID,102.155,VALID,0.105969,VALID,25.2123,VALID,101,VALID,0.410937,
2010-07-07, 01:35:04,VALID,1009.09,VALID,0,VALID,102.162,VALID,0,VALID,25.2123,VALID,101,VALID,0.375391,
2010-07-07, 01:36:04,VALID,1009.09,VALID,0,VALID,102.193,VALID,0,VALID,25.2337,VALID,107,VALID,1.19375,
2010-07-07, 01:37:04,VALID,1009.11,VALID,0,VALID,102.223,VALID,0,VALID,25.2337,VALID,106,VALID,0.802734,
2010-07-07, 01:38:04,VALID,1009.1,VALID,0,VALID,102.238,VALID,0,VALID,25.2123,VALID,114,VALID,0.90625,
2010-07-07, 01:39:04,VALID,1009.08,VALID,0,VALID,102.269,VALID,0,VALID,25.2337,VALID,103,VALID,0.770703,
2010-07-07, 01:40:04,VALID,1009.09,VALID,0,VALID,102.269,VALID,0,VALID,25.2337,VALID,117,VALID,0.808984,
2010-07-07, 01:41:04,VALID,1009.03,VALID,0,VALID,102.277,VALID,0,VALID,25.2337,VALID,97,VALID,0.5625,
2010-07-07, 01:42:04,VALID,1009.04,VALID,0,VALID,102.269,VALID,0,VALID,25.2337,VALID,123,VALID,0.276563,
2010-07-07, 01:43:04,VALID,1008.98,VALID,0,VALID,102.277,VALID,0.105969,VALID,25.1928,VALID,127,VALID,0.403906,
2010-07-07, 01:44:04,VALID,1008.98,VALID,0,VALID,102.292,VALID,0,VALID,25.1733,VALID,135,VALID,0.959766,
2010-07-07, 01:45:04,VALID,1008.96,VALID,0,VALID,102.277,VALID,0,VALID,25.1928,VALID,134,VALID,0.600781,
2010-07-07, 01:46:04,VALID,1008.97,VALID,0,VALID,102.277,VALID,0,VALID,25.1733,VALID,144,VALID,0.747656,
2010-07-07, 01:47:04,VALID,1008.94,VALID,0,VALID,102.246,VALID,0,VALID,25.1947,VALID,136,VALID,0.544922,
2010-07-07, 01:48:04,VALID,1008.93,VALID,0,VALID,102.277,VALID,0,VALID,25.1733,VALID,140,VALID,0.838281,
2010-07-07, 01:49:04,VALID,1008.9,VALID,0,VALID,102.284,VALID,0,VALID,25.1947,VALID,140,VALID,0.279297,
2010-07-07, 01:50:04,VALID,1008.89,VALID,0,VALID,102.261,VALID,0.105969,VALID,25.1752,VALID,140,VALID,0,
2010-07-07, 01:51:04,VALID,1008.9,VALID,0,VALID,102.254,VALID,0,VALID,25.1538,VALID,140,VALID,0,
2010-07-07, 01:52:04,VALID,1008.89,VALID,0,VALID,102.284,VALID,0.105969,VALID,25.1538,VALID,118,VALID,0.0558594,
2010-07-07, 01:53:04,VALID,1008.86,VALID,0,VALID,102.284,VALID,0,VALID,25.1752,VALID,92,VALID,0.14375,
2010-07-07, 01:54:04,VALID,1008.84,VALID,0,VALID,102.277,VALID,0,VALID,25.1947,VALID,92,VALID,0,
2010-07-07, 01:55:04,VALID,1008.79,VALID,0,VALID,102.269,VALID,0,VALID,25.1947,VALID,92,VALID,0,
2010-07-07, 01:56:04,VALID,1008.78,VALID,0,VALID,102.269,VALID,0,VALID,25.1752,VALID,92,VALID,0.334766,
2010-07-07, 01:57:04,VALID,1008.78,VALID,0,VALID,102.261,VALID,0.105969,VALID,25.1733,VALID,92,VALID,0.201953,
2010-07-07, 01:58:04,VALID,1008.74,VALID,0,VALID,102.238,VALID,0,VALID,25.1733,VALID,92,VALID,0,
2010-07-07, 01:59:04,VALID,1008.76,VALID,0,VALID,102.238,VALID,0,VALID,25.1947,VALID,92,VALID,0.291016,
2010-07-07, 02:00:04,VALID,1008.71,VALID,0,VALID,102.2,VALID,0,VALID,25.1733,VALID,95,VALID,0.792188,
2010-07-07, 02:01:04,VALID,1008.72,VALID,0,VALID,102.185,VALID,0.105969,VALID,25.1928,VALID,97,VALID,0.365234,
2010-07-07, 02:02:04,VALID,1008.7,VALID,0,VALID,102.155,VALID,0.105969,VALID,25.1733,VALID,134,VALID,0.558594,
2010-07-07, 02:03:04,VALID,1008.71,VALID,0,VALID,102.094,VALID,0.105969,VALID,25.1928,VALID,117,VALID,0.389844,
2010-07-07, 02:04:04,VALID,1008.67,VALID,0,VALID,102.063,VALID,0,VALID,25.1928,VALID,109,VALID,0.349609,
2010-07-07, 02:05:04,VALID,1008.69,VALID,0,VALID,102.002,VALID,0.105969,VALID,25.1928,VALID,109,VALID,0.00507812,
2010-07-07, 02:06:04,VALID,1008.65,VALID,0,VALID,101.949,VALID,0,VALID,25.1928,VALID,109,VALID,0.319531,
2010-07-07, 02:07:04,VALID,1008.68,VALID,0,VALID,101.933,VALID,0,VALID,25.1928,VALID,88,VALID,0.503125,
2010-07-07, 02:08:04,VALID,1008.66,VALID,0,VALID,101.911,VALID,0.105969,VALID,25.2142,VALID,88,VALID,0.360547,
2010-07-07, 02:09:04,VALID,1008.68,VALID,0,VALID,101.933,VALID,0,VALID,25.1928,VALID,88,VALID,0.0367187,
2010-07-07, 02:10:04,VALID,1008.68,VALID,0,VALID,101.926,VALID,0.105969,VALID,25.1947,VALID,97,VALID,0.290625,
2010-07-07, 02:11:04,VALID,1008.69,VALID,0,VALID,101.926,VALID,0.105969,VALID,25.2142,VALID,100,VALID,0.422266,
2010-07-07, 02:12:04,VALID,1008.67,VALID,0,VALID,101.926,VALID,0,VALID,25.1928,VALID,66,VALID,0,
2010-07-07, 02:13:04,VALID,1008.69,VALID,0,VALID,101.933,VALID,0.105969,VALID,25.1947,VALID,60,VALID,0.523828,
2010-07-07, 02:14:04,VALID,1008.66,VALID,0,VALID,101.941,VALID,0,VALID,25.1538,VALID,50,VALID,0.475391,
2010-07-07, 02:15:04,VALID,1008.64,VALID,0,VALID,101.964,VALID,0.105969,VALID,25.1538,VALID,35,VALID,0.417188,
2010-07-07, 02:16:04,VALID,1008.65,VALID,0,VALID,101.987,VALID,0.105969,VALID,25.1538,VALID,35,VALID,0.11875,
2010-07-07, 02:17:04,VALID,1008.64,VALID,0,VALID,101.987,VALID,0.105969,VALID,25.1343,VALID,35,VALID,0.428906,
2010-07-07, 02:18:04,VALID,1008.65,VALID,0,VALID,102.04,VALID,0,VALID,25.1148,VALID,70,VALID,0.408594,
2010-07-07, 02:19:04,VALID,1008.63,VALID,0,VALID,102.063,VALID,0,VALID,25.1167,VALID,71,VALID,0,
2010-07-07, 02:20:04,VALID,1008.65,VALID,0,VALID,102.094,VALID,0,VALID,25.1187,VALID,71,VALID,0.539453,
2010-07-07, 02:21:04,VALID,1008.64,VALID,0,VALID,102.132,VALID,0,VALID,25.0778,VALID,80,VALID,0.509766,
2010-07-07, 02:22:04,VALID,1008.63,VALID,0,VALID,102.147,VALID,0,VALID,25.0992,VALID,92,VALID,0.239844,
2010-07-07, 02:23:04,VALID,1008.63,VALID,0,VALID,102.17,VALID,0,VALID,25.0778,VALID,86,VALID,0.385547,
2010-07-07, 02:24:04,VALID,1008.63,VALID,0,VALID,102.185,VALID,0,VALID,25.0992,VALID,89,VALID,0.644141,
2010-07-07, 02:25:04,VALID,1008.6,VALID,0,VALID,102.193,VALID,0,VALID,25.0778,VALID,89,VALID,0.449609,
2010-07-07, 02:26:04,VALID,1008.62,VALID,0,VALID,102.208,VALID,0,VALID,25.0992,VALID,89,VALID,0.348828,
2010-07-07, 02:27:04,VALID,1008.63,VALID,0,VALID,102.2,VALID,0,VALID,25.0778,VALID,89,VALID,0.244922,
2010-07-07, 02:28:04,VALID,1008.64,VALID,0,VALID,102.2,VALID,0,VALID,25.0583,VALID,78,VALID,0.464844,
2010-07-07, 02:29:04,VALID,1008.64,VALID,0,VALID,102.216,VALID,0,VALID,25.0583,VALID,65,VALID,0.426172,
2010-07-07, 02:30:04,VALID,1008.64,VALID,0,VALID,102.216,VALID,0,VALID,25.0583,VALID,59,VALID,0.742578,
2010-07-07, 02:31:04,VALID,1008.62,VALID,0,VALID,102.216,VALID,0,VALID,25.0583,VALID,52,VALID,0.339844,
2010-07-07, 02:32:04,VALID,1008.63,VALID,0,VALID,102.216,VALID,0,VALID,25.0778,VALID,53,VALID,0.266797,
2010-07-07, 02:33:04,VALID,1008.63,VALID,0,VALID,102.223,VALID,0,VALID,25.0583,VALID,62,VALID,0.542969,
2010-07-07, 02:34:04,VALID,1008.63,VALID,0,VALID,102.223,VALID,0,VALID,25.0973,VALID,96,VALID,0.316016,
2010-07-07, 02:35:04,VALID,1008.64,VALID,0,VALID,102.238,VALID,0,VALID,25.0759,VALID,81,VALID,0.841797,
2010-07-07, 02:36:04,VALID,1008.63,VALID,0,VALID,102.223,VALID,0.105969,VALID,25.0954,VALID,92,VALID,0.583203,
2010-07-07, 02:37:04,VALID,1008.66,VALID,0,VALID,102.216,VALID,0,VALID,25.0973,VALID,73,VALID,0.464453,
2010-07-07, 02:38:04,VALID,1008.67,VALID,0,VALID,102.185,VALID,0.105969,VALID,25.0759,VALID,73,VALID,0.164453,
2010-07-07, 02:39:04,VALID,1008.66,VALID,0,VALID,102.193,VALID,0,VALID,25.0759,VALID,68,VALID,0.0820313,
2010-07-07, 02:40:04,VALID,1008.64,VALID,0,VALID,102.185,VALID,0,VALID,25.0759,VALID,58,VALID,0.406641,
2010-07-07, 02:41:04,VALID,1008.63,VALID,0,VALID,102.216,VALID,0.105969,VALID,25.0564,VALID,72,VALID,0.258984,
2010-07-07, 02:42:04,VALID,1008.64,VALID,0,VALID,102.216,VALID,0,VALID,25.0778,VALID,70,VALID,0.602734,
2010-07-07, 02:43:04,VALID,1008.61,VALID,0,VALID,102.231,VALID,0.105969,VALID,25.0973,VALID,66,VALID,0.527734,
2010-07-07, 02:44:04,VALID,1008.63,VALID,0,VALID,102.208,VALID,0.105969,VALID,25.0973,VALID,85,VALID,0.226172,
2010-07-07, 02:45:04,VALID,1008.6,VALID,0,VALID,102.223,VALID,0,VALID,25.0778,VALID,78,VALID,0.711328,
2010-07-07, 02:46:04,VALID,1008.57,VALID,0,VALID,102.231,VALID,0,VALID,25.0564,VALID,90,VALID,0.490234,
2010-07-07, 02:47:05,VALID,1008.59,VALID,0,VALID,102.231,VALID,0,VALID,25.0778,VALID,90,VALID,0.544141,
2010-07-07, 02:48:05,VALID,1008.59,VALID,0,VALID,102.223,VALID,0,VALID,25.0564,VALID,90,VALID,0.419141,
2010-07-07, 02:49:05,VALID,1008.59,VALID,0,VALID,102.223,VALID,0,VALID,25.0778,VALID,90,VALID,0.292969,
2010-07-07, 02:50:05,VALID,1008.58,VALID,0,VALID,102.238,VALID,0,VALID,25.0973,VALID,98,VALID,0.366016,
2010-07-07, 02:51:05,VALID,1008.56,VALID,0,VALID,102.246,VALID,0.105969,VALID,25.0564,VALID,150,VALID,0.800391,
2010-07-07, 02:52:05,VALID,1008.54,VALID,0,VALID,102.216,VALID,0,VALID,25.0564,VALID,151,VALID,0.938672,
2010-07-07, 02:53:05,VALID,1008.55,VALID,0,VALID,102.185,VALID,0,VALID,25.0583,VALID,114,VALID,0.723047,
2010-07-07, 02:54:05,VALID,1008.56,VALID,0,VALID,102.223,VALID,0,VALID,25.0369,VALID,118,VALID,0.381641,
2010-07-07, 02:55:05,VALID,1008.56,VALID,0,VALID,102.185,VALID,0,VALID,25.0388,VALID,118,VALID,0.439063,
2010-07-07, 02:56:05,VALID,1008.55,VALID,0,VALID,102.193,VALID,0,VALID,25.0193,VALID,118,VALID,0.191406,
2010-07-07, 02:57:05,VALID,1008.55,VALID,0,VALID,102.193,VALID,0,VALID,25.0193,VALID,145,VALID,0.162109,
2010-07-07, 02:58:05,VALID,1008.55,VALID,0,VALID,102.231,VALID,0,VALID,24.9998,VALID,140,VALID,0.301172,
2010-07-07, 02:59:05,VALID,1008.53,VALID,0,VALID,102.238,VALID,0,VALID,25.0193,VALID,140,VALID,0.116016,
2010-07-07, 03:00:05,VALID,1008.52,VALID,0,VALID,102.269,VALID,0.105969,VALID,24.9998,VALID,140,VALID,0,
2010-07-07, 03:01:05,VALID,1008.5,VALID,0,VALID,102.277,VALID,0.105969,VALID,24.9803,VALID,140,VALID,0.00390625,
2010-07-07, 03:02:05,VALID,1008.49,VALID,0,VALID,102.277,VALID,0,VALID,24.9998,VALID,168,VALID,0.414453,
2010-07-07, 03:03:05,VALID,1008.49,VALID,0,VALID,102.284,VALID,0,VALID,24.9998,VALID,168,VALID,0.463672,
2010-07-07, 03:04:05,VALID,1008.51,VALID,0,VALID,102.284,VALID,0,VALID,24.9784,VALID,168,VALID,0.352734,
2010-07-07, 03:05:05,VALID,1008.48,VALID,0,VALID,102.307,VALID,0,VALID,24.9998,VALID,168,VALID,0.327734,
2010-07-07, 03:06:05,VALID,1008.5,VALID,0,VALID,102.292,VALID,0,VALID,24.9998,VALID,168,VALID,0.516016,
2010-07-07, 03:07:05,VALID,1008.47,VALID,0,VALID,102.299,VALID,0,VALID,24.9784,VALID,168,VALID,0.396875,
2010-07-07, 03:08:05,VALID,1008.49,VALID,0,VALID,102.299,VALID,0,VALID,24.9998,VALID,168,VALID,0.491016,
2010-07-07, 03:09:05,VALID,1008.49,VALID,0,VALID,102.315,VALID,0,VALID,24.9784,VALID,180,VALID,0.490625,
2010-07-07, 03:10:05,VALID,1008.5,VALID,0,VALID,102.307,VALID,0.105969,VALID,24.9979,VALID,178,VALID,0.199609,
2010-07-07, 03:11:05,VALID,1008.49,VALID,0,VALID,102.307,VALID,0.105969,VALID,24.9998,VALID,178,VALID,0,
2010-07-07, 03:12:05,VALID,1008.51,VALID,0,VALID,102.322,VALID,0,VALID,24.9784,VALID,178,VALID,0.0632813,
2010-07-07, 03:13:05,VALID,1008.56,VALID,0,VALID,102.299,VALID,0,VALID,24.9589,VALID,178,VALID,0,
2010-07-07, 03:14:05,VALID,1008.6,VALID,0,VALID,102.33,VALID,0,VALID,24.9998,VALID,178,VALID,0,
2010-07-07, 03:15:05,VALID,1008.59,VALID,0,VALID,102.299,VALID,0,VALID,24.9784,VALID,178,VALID,0,
2010-07-07, 03:16:05,VALID,1008.6,VALID,0,VALID,102.292,VALID,0,VALID,24.9784,VALID,178,VALID,0,
2010-07-07, 03:17:05,VALID,1008.62,VALID,0,VALID,102.284,VALID,0,VALID,24.9803,VALID,178,VALID,0.0761719,
2010-07-07, 03:18:05,VALID,1008.63,VALID,0,VALID,102.299,VALID,0,VALID,24.9998,VALID,108,VALID,0.335938,
2010-07-07, 03:19:05,VALID,1008.67,VALID,0,VALID,102.307,VALID,0.105969,VALID,24.9803,VALID,51,VALID,0.319141,
2010-07-07, 03:20:05,VALID,1008.67,VALID,0,VALID,102.299,VALID,0,VALID,24.9589,VALID,51,VALID,0.314453,
2010-07-07, 03:21:05,VALID,1008.66,VALID,0,VALID,102.299,VALID,0.105969,VALID,24.9608,VALID,51,VALID,0.179297,
2010-07-07, 03:22:05,VALID,1008.67,VALID,0,VALID,102.299,VALID,0.105969,VALID,24.9413,VALID,51,VALID,0.0992187,
2010-07-07, 03:23:05,VALID,1008.66,VALID,0,VALID,102.284,VALID,0,VALID,24.9023,VALID,51,VALID,0.169922,
2010-07-07, 03:24:05,VALID,1008.66,VALID,0,VALID,102.338,VALID,0,VALID,24.9023,VALID,51,VALID,0,
2010-07-07, 03:25:05,VALID,1008.68,VALID,0,VALID,102.345,VALID,0,VALID,24.9023,VALID,51,VALID,0.137109,
2010-07-07, 03:26:05,VALID,1008.68,VALID,0,VALID,102.353,VALID,0,VALID,24.9004,VALID,51,VALID,0.35625,
2010-07-07, 03:27:05,VALID,1008.73,VALID,0,VALID,102.338,VALID,0,VALID,24.8633,VALID,51,VALID,0.176953,
2010-07-07, 03:28:05,VALID,1008.73,VALID,0,VALID,102.353,VALID,0,VALID,24.8809,VALID,51,VALID,0.275391,
2010-07-07, 03:29:05,VALID,1008.75,VALID,0,VALID,102.376,VALID,0,VALID,24.8828,VALID,51,VALID,0.270312,
2010-07-07, 03:30:05,VALID,1008.76,VALID,0,VALID,102.353,VALID,0,VALID,24.8828,VALID,51,VALID,0.25625,
2010-07-07, 03:31:05,VALID,1008.8,VALID,0,VALID,102.353,VALID,0,VALID,24.8828,VALID,51,VALID,0.247656,
2010-07-07, 03:32:05,VALID,1008.78,VALID,0,VALID,102.368,VALID,0.105969,VALID,24.8633,VALID,51,VALID,0,
2010-07-07, 03:33:05,VALID,1008.79,VALID,0,VALID,102.376,VALID,0.105969,VALID,24.842,VALID,51,VALID,0,
2010-07-07, 03:34:05,VALID,1008.8,VALID,0,VALID,102.345,VALID,0.105969,VALID,24.842,VALID,51,VALID,0,
2010-07-07, 03:35:05,VALID,1008.8,VALID,0,VALID,102.383,VALID,0.105969,VALID,24.8615,VALID,51,VALID,0,
2010-07-07, 03:36:05,VALID,1008.81,VALID,0,VALID,102.383,VALID,0.105969,VALID,24.842,VALID,51,VALID,0,
2010-07-07, 03:37:05,VALID,1008.84,VALID,0,VALID,102.399,VALID,0,VALID,24.8225,VALID,51,VALID,0,
2010-07-07, 03:38:05,VALID,1008.84,VALID,0,VALID,102.368,VALID,0.105969,VALID,24.803,VALID,51,VALID,0,
2010-07-07, 03:39:05,VALID,1008.86,VALID,0,VALID,102.383,VALID,0.105969,VALID,24.8244,VALID,51,VALID,0,
2010-07-07, 03:40:05,VALID,1008.86,VALID,0,VALID,102.399,VALID,0,VALID,24.8225,VALID,153,VALID,0.685156,
2010-07-07, 03:41:05,VALID,1008.88,VALID,0,VALID,102.414,VALID,0.105969,VALID,24.8615,VALID,145,VALID,0.382031,
2010-07-07, 03:42:05,VALID,1008.91,VALID,0,VALID,102.421,VALID,0.105969,VALID,24.8615,VALID,145,VALID,0.227734,
2010-07-07, 03:43:05,VALID,1008.89,VALID,0,VALID,102.421,VALID,0,VALID,24.8633,VALID,145,VALID,0.314063,
2010-07-07, 03:44:05,VALID,1008.86,VALID,0,VALID,102.36,VALID,0,VALID,24.842,VALID,163,VALID,0.424219,
2010-07-07, 03:45:05,VALID,1008.89,VALID,0,VALID,102.353,VALID,0.105969,VALID,24.8225,VALID,156,VALID,0.406641,
2010-07-07, 03:46:05,VALID,1008.86,VALID,0,VALID,102.322,VALID,0.105969,VALID,24.8633,VALID,149,VALID,0.282813,
2010-07-07, 03:47:05,VALID,1008.84,VALID,0,VALID,102.292,VALID,0.105969,VALID,24.8225,VALID,149,VALID,0.0140625,